Previsão horária em Celestynow

Hoje, 27 Julho, Terça-feira

Tempo Temperatura Precipitação Vento Pressão Humidade
00:00 +20°C° 0 mm 2 m/s 746 mmHg 90%
01:00 +20°C° 0 mm 2 m/s 746 mmHg 90%
02:00 +19°C° 0 mm 2 m/s 746 mmHg 90%
03:00 +19°C° 0 mm 2 m/s 746 mmHg 89%
04:00 +19°C° 0 mm 2 m/s 746 mmHg 88%
05:00 +20°C° 0.1 mm 2 m/s 746 mmHg 86%
06:00 +21°C° 0.1 mm 2 m/s 746 mmHg 84%
07:00 +23°C° 0.1 mm 2 m/s 747 mmHg 82%
08:00 +23°C° 0.1 mm 2 m/s 747 mmHg 80%
09:00 +23°C° 0.1 mm 2 m/s 747 mmHg 79%
10:00 +24°C° 0.1 mm 2 m/s 747 mmHg 78%
11:00 +25°C° 0.1 mm 2 m/s 747 mmHg 72%
12:00 +26°C° 0.1 mm 2 m/s 747 mmHg 66%
13:00 +28°C° 0.1 mm 3 m/s 747 mmHg 60%
14:00 +28°C° 0 mm 3 m/s 747 mmHg 56%
15:00 +29°C° 0 mm 3 m/s 747 mmHg 52%
16:00 +30°C° 0 mm 3 m/s 747 mmHg 49%
17:00 +28°C° 0 mm 2 m/s 747 mmHg 55%
18:00 +27°C° 0 mm 2 m/s 747 mmHg 61%
19:00 +25°C° 0 mm 2 m/s 747 mmHg 68%
20:00 +24°C° 0 mm 1 m/s 747 mmHg 70%
21:00 +23°C° 0 mm 1 m/s 748 mmHg 73%
22:00 +20°C° 0 mm 0 m/s 748 mmHg 75%
23:00 +22°C° 0 mm 1 m/s 748 mmHg 76%

Amanhã, 28 Julho, Quarta-feira

Tempo Temperatura Precipitação Vento Pressão Humidade
00:00 +22°C° 0 mm 1 m/s 748 mmHg 78%
01:00 +21°C° 0 mm 2 m/s 748 mmHg 79%
02:00 +20°C° 0 mm 2 m/s 747 mmHg 80%
03:00 +20°C° 0 mm 2 m/s 747 mmHg 81%
04:00 +20°C° 0 mm 2 m/s 747 mmHg 82%
05:00 +21°C° 0 mm 2 m/s 747 mmHg 77%
06:00 +24°C° 0 mm 2 m/s 747 mmHg 72%
07:00 +25°C° 0 mm 2 m/s 747 mmHg 67%
08:00 +27°C° 0 mm 2 m/s 747 mmHg 61%
09:00 +28°C° 0 mm 1 m/s 747 mmHg 55%
10:00 +30°C° 0 mm 1 m/s 747 mmHg 49%
11:00 +30°C° 0 mm 1 m/s 747 mmHg 47%
12:00 +31°C° 0 mm 1 m/s 746 mmHg 45%
13:00 +31°C° 0 mm 2 m/s 746 mmHg 42%
14:00 +30°C° 0.2 mm 2 m/s 746 mmHg 49%
15:00 +28°C° 0.2 mm 3 m/s 746 mmHg 56%
16:00 +27°C° 0.2 mm 3 m/s 745 mmHg 63%
17:00 +25°C° 1.3 mm 3 m/s 745 mmHg 72%
18:00 +24°C° 1.3 mm 3 m/s 745 mmHg 80%
19:00 +21°C° 1.3 mm 3 m/s 746 mmHg 89%
20:00 +20°C° 0.1 mm 3 m/s 746 mmHg 89%
21:00 +20°C° 0.1 mm 3 m/s 746 mmHg 90%
22:00 +20°C° 0.1 mm 3 m/s 746 mmHg 90%
23:00 +19°C° 0 mm 3 m/s 746 mmHg 91%

Depois de amanhã, 29 Julho, Quinta-feira

Tempo Temperatura Precipitação Vento Pressão Humidade
00:00 +19°C° 0 mm 3 m/s 746 mmHg 91%
01:00 +19°C° 0 mm 3 m/s 746 mmHg 92%
02:00 +19°C° 0 mm 3 m/s 746 mmHg 93%
03:00 +18°C° 0 mm 3 m/s 746 mmHg 94%
04:00 +18°C° 0 mm 3 m/s 747 mmHg 95%
05:00 +19°C° 0 mm 3 m/s 747 mmHg 90%
06:00 +20°C° 0 mm 3 m/s 747 mmHg 85%
07:00 +21°C° 0 mm 4 m/s 747 mmHg 80%
08:00 +22°C° 0 mm 4 m/s 747 mmHg 71%
09:00 +23°C° 0 mm 4 m/s 747 mmHg 63%
10:00 +26°C° 0 mm 4 m/s 747 mmHg 54%
11:00 +26°C° 0 mm 5 m/s 747 mmHg 51%
12:00 +27°C° 0 mm 5 m/s 747 mmHg 48%
13:00 +28°C° 0 mm 5 m/s 747 mmHg 45%
14:00 +28°C° 0 mm 5 m/s 747 mmHg 44%
15:00 +28°C° 0 mm 5 m/s 746 mmHg 43%
16:00 +29°C° 0 mm 5 m/s 746 mmHg 41%
17:00 +27°C° 0 mm 4 m/s 746 mmHg 46%
18:00 +26°C° 0 mm 3 m/s 746 mmHg 50%
19:00 +25°C° 0 mm 3 m/s 746 mmHg 54%
20:00 +23°C° 0 mm 2 m/s 746 mmHg 56%
21:00 +21°C° 0 mm 2 m/s 746 mmHg 58%
22:00 +20°C° 0 mm 2 m/s 746 mmHg 60%
23:00 +20°C° 0 mm 2 m/s 746 mmHg 61%

30 Julho, Sexta-feira

Tempo Temperatura Precipitação Vento Pressão Humidade
00:00 +19°C° 0 mm 2 m/s 746 mmHg 63%
01:00 +19°C° 0 mm 2 m/s 746 mmHg 64%
02:00 +19°C° 0 mm 2 m/s 745 mmHg 66%
03:00 +18°C° 0 mm 2 m/s 745 mmHg 68%
04:00 +18°C° 0 mm 2 m/s 745 mmHg 70%
05:00 +19°C° 0 mm 2 m/s 745 mmHg 67%
06:00 +20°C° 0 mm 2 m/s 745 mmHg 65%
07:00 +23°C° 0 mm 2 m/s 745 mmHg 63%
08:00 +24°C° 0 mm 3 m/s 745 mmHg 59%
09:00 +25°C° 0 mm 3 m/s 745 mmHg 55%
10:00 +27°C° 0 mm 4 m/s 745 mmHg 52%
11:00 +28°C° 0 mm 4 m/s 745 mmHg 49%
12:00 +28°C° 0 mm 4 m/s 745 mmHg 47%
13:00 +29°C° 0 mm 5 m/s 744 mmHg 45%
14:00 +29°C° 0 mm 5 m/s 744 mmHg 46%
15:00 +29°C° 0 mm 5 m/s 744 mmHg 46%
16:00 +29°C° 0 mm 5 m/s 744 mmHg 46%
17:00 +27°C° 0 mm 4 m/s 743 mmHg 51%
18:00 +26°C° 0 mm 3 m/s 743 mmHg 55%
19:00 +24°C° 0 mm 2 m/s 743 mmHg 59%
20:00 +23°C° 0 mm 2 m/s 743 mmHg 61%
21:00 +22°C° 0 mm 1 m/s 743 mmHg 62%
22:00 +21°C° 0 mm 1 m/s 744 mmHg 64%
23:00 +20°C° 0 mm 1 m/s 743 mmHg 64%

31 Julho, Sábado

Tempo Temperatura Precipitação Vento Pressão Humidade
00:00 +20°C° 0 mm 1 m/s 743 mmHg 65%
01:00 +20°C° 0 mm 1 m/s 743 mmHg 65%
02:00 +20°C° 0 mm 1 m/s 743 mmHg 66%
03:00 +20°C° 0 mm 1 m/s 743 mmHg 67%
04:00 +17°C° 0 mm 0 m/s 743 mmHg 68%
05:00 +19°C° 0 mm 0 m/s 743 mmHg 65%
06:00 +20°C° 0 mm 0 m/s 743 mmHg 62%
07:00 +21°C° 0 mm 0 m/s 743 mmHg 59%
08:00 +25°C° 0 mm 1 m/s 743 mmHg 56%
09:00 +26°C° 0 mm 1 m/s 743 mmHg 53%
10:00 +27°C° 0 mm 2 m/s 743 mmHg 50%
11:00 +28°C° 0 mm 2 m/s 742 mmHg 49%
12:00 +29°C° 0 mm 3 m/s 742 mmHg 48%
13:00 +30°C° 0 mm 3 m/s 742 mmHg 46%
14:00 +29°C° 0.1 mm 4 m/s 742 mmHg 48%
15:00 +28°C° 0.1 mm 5 m/s 742 mmHg 50%
16:00 +28°C° 0.1 mm 5 m/s 742 mmHg 52%
17:00 +26°C° 0 mm 5 m/s 742 mmHg 55%
18:00 +23°C° 0 mm 5 m/s 742 mmHg 59%
19:00 +22°C° 0 mm 5 m/s 743 mmHg 62%
20:00 +21°C° 0 mm 4 m/s 743 mmHg 63%
21:00 +19°C° 0 mm 3 m/s 744 mmHg 65%
22:00 +18°C° 0 mm 3 m/s 744 mmHg 66%
23:00 +18°C° 0 mm 3 m/s 744 mmHg 66%

1 Agosto, Domingo

Tempo Temperatura Precipitação Vento Pressão Humidade
00:00 +18°C° 0 mm 3 m/s 744 mmHg 66%
01:00 +17°C° 0 mm 3 m/s 744 mmHg 66%
02:00 +17°C° 0 mm 3 m/s 744 mmHg 67%
03:00 +17°C° 0 mm 3 m/s 744 mmHg 68%
04:00 +16°C° 0 mm 3 m/s 744 mmHg 69%
05:00 +17°C° 0 mm 3 m/s 745 mmHg 66%
06:00 +19°C° 0 mm 3 m/s 745 mmHg 63%
07:00 +20°C° 0 mm 4 m/s 745 mmHg 61%
08:00 +21°C° 0 mm 4 m/s 745 mmHg 57%
09:00 +22°C° 0 mm 4 m/s 745 mmHg 53%
10:00 +23°C° 0 mm 5 m/s 745 mmHg 49%
11:00 +25°C° 0 mm 5 m/s 745 mmHg 46%
12:00 +26°C° 0 mm 5 m/s 745 mmHg 43%
13:00 +27°C° 0 mm 5 m/s 744 mmHg 40%
14:00 +25°C° 0 mm 4 m/s 744 mmHg 45%
15:00 +24°C° 0 mm 3 m/s 744 mmHg 50%
16:00 +23°C° 0 mm 2 m/s 744 mmHg 54%
17:00 +23°C° 0 mm 2 m/s 744 mmHg 57%
18:00 +22°C° 0 mm 1 m/s 744 mmHg 59%
19:00 +21°C° 0 mm 1 m/s 744 mmHg 62%
20:00 +21°C° 0 mm 1 m/s 744 mmHg 63%
21:00 +20°C° 0 mm 1 m/s 744 mmHg 65%
22:00 +19°C° 0 mm 1 m/s 743 mmHg 66%
23:00 +19°C° 0 mm 1 m/s 744 mmHg 67%
Mostrar mais

Necessitamos do seu Consentimento

A Meteoprog e os seus Fornecedores de Serviços podem armazenar e aceder a dados pessoais como cookies, identificadores do dispositivo ou outras tecnologias semelhantes existentes no seu dispositivo e processar estes dados para personalizar conteúdos e anúncios, assim como funcionalidades nas redes sociais e análise de tráfego.

  • Armazenar e/ou aceder a informações no seu dispositivo

    Os cookies, identificadores do dispositivo ou outras informações podem ser armazenados ou acedidos no seu dispositivo, para os fins acima indicados.

  • Anúncios e conteúdos personalizados, medição de anúncios e conteúdos, dados sobre o público-alvo e desenvolvimento de produtos

    Os anúncios e os conteúdos podem ser personalizados com base num perfil. Podem ser adicionados dados adicionais para uma maior personalização dos anúncios e dos conteúdos. A eficácia dos anúncios e dos conteúdos pode ser medida. Podem ser obtidas informações sobre o público que visualizou os anúncios e os conteúdos. Estes dados podem ser usados para desenvolver ou melhorar sistemas, softwares ou a experiência do utilizador.

Ao clicar em "Eu concordo”, permitirá o uso de cookies, identificadores do dispositivo e web beacons mencionados ou outras tecnologias semelhantes. As configurações do navegador do seu dispositivo podem ser alteradas.

Para certos fins, podem ser invocados interesses legítimos ao invés de consentimento. Pode ler mais informação sobre este assunto na nossa Política de Privacidade e Cookies.